Location: Glenbow
(51.1592°N, 114.3828°W)
Time: 21:20:36
(UTC+00:00)

Envisat - Pass Details

Date: 06 December 2021
Orbit: 764 x 766 km, 98.2° (Epoch: 26 January)

Event Time Altitude Azimuth Distance (km) Brightness Sun altitude
Rises 12:36:21 0° 16° (NNE) 3,247 6.4 -25.5°
Reaches altitude 10° 12:38:42 10° 19° (NNE) 2,316 5.6 -25.1°
Maximum altitude 12:43:47 68° 102° (ESE) 827 3.3 -24.3°
Drops below altitude 10° 12:48:50 10° 186° (S) 2,298 5.5 -23.5°
Sets 12:51:09 0° 189° (S) 3,219 6.2 -23.2°
